BCS35P EGPF-EDDK

Flight info

Callsign BCS35P
Flight time N/A
Altitude 35000
Route NORBO Y96 HAVEN DCT ERKIT N110 DOLAS L603 LAMSO DCT PAM L620 SONEB/N0448F230 Z841 GETNI T858 KOPAG KOPAG1B
Aircraft A306/H-SDE3FGHIRWY/LB1

Departure

Time 2026-05-07 11:54
Airport Glasgow Airport (EGPF)

Arrival

Time N/A
Airport Cologne Bonn Airport (EDDK)
Time Latitude Longitude Altitude Speed Heading
2026-05-07 11:23 55.86655 -4.42847 35 ft 0 kts 74°
2026-05-07 11:44 55.86651 -4.42868 34 ft 2 kts 62°
2026-05-07 11:44 55.86641 -4.42892 33 ft 2 kts 32°
2026-05-07 11:44 55.86626 -4.42900 33 ft 2 kts 355°
2026-05-07 11:44 55.86613 -4.42897 35 ft 1 kts 346°
2026-05-07 11:45 55.86611 -4.42896 35 ft 0 kts 345°
2026-05-07 11:48 55.86613 -4.42897 35 ft 2 kts 345°
2026-05-07 11:48 55.86645 -4.42912 34 ft 7 kts 343°
2026-05-07 11:48 55.86712 -4.42949 36 ft 12 kts 343°
2026-05-07 11:49 55.86784 -4.42986 37 ft 10 kts 348°
2026-05-07 11:49 55.86842 -4.42982 38 ft 7 kts 13°
2026-05-07 11:49 55.86886 -4.42947 37 ft 9 kts 28°
2026-05-07 11:49 55.86975 -4.42865 36 ft 19 kts 26°
2026-05-07 11:50 55.87094 -4.42786 34 ft 18 kts 20°
2026-05-07 11:50 55.87206 -4.42709 33 ft 17 kts 22°
2026-05-07 11:50 55.87309 -4.42641 33 ft 15 kts 19°
2026-05-07 11:50 55.87400 -4.42567 33 ft 14 kts 36°
2026-05-07 11:51 55.87458 -4.42459 35 ft 10 kts 47°
2026-05-07 11:51 55.87514 -4.42353 33 ft 17 kts 46°
2026-05-07 11:51 55.87608 -4.42178 32 ft 19 kts 46°
2026-05-07 11:51 55.87702 -4.41999 29 ft 19 kts 47°
2026-05-07 11:52 55.87798 -4.41857 29 ft 17 kts 22°
2026-05-07 11:52 55.87899 -4.41859 30 ft 12 kts 346°
2026-05-07 11:52 55.87946 -4.41904 31 ft 4 kts 296°
2026-05-07 11:52 55.87941 -4.41936 32 ft 4 kts 235°
2026-05-07 11:53 55.87928 -4.41959 31 ft 0 kts 225°
2026-05-07 11:53 55.87868 -4.42065 31 ft 39 kts 225°
2026-05-07 11:53 55.87528 -4.42697 37 ft 100 kts 225°
2026-05-07 11:53 55.86931 -4.43813 38 ft 151 kts 224°
2026-05-07 11:54 55.86118 -4.45232 507 ft 166 kts 221°
2026-05-07 11:54 55.85305 -4.46711 1395 ft 169 kts 223°
2026-05-07 11:54 55.84475 -4.48213 2218 ft 175 kts 223°
2026-05-07 11:54 55.83577 -4.49828 2778 ft 190 kts 224°
2026-05-07 11:55 55.82591 -4.51604 3171 ft 216 kts 225°
2026-05-07 11:55 55.81461 -4.53564 3741 ft 230 kts 223°
2026-05-07 11:55 55.80302 -4.55571 4523 ft 238 kts 224°
2026-05-07 11:55 55.79122 -4.57674 5366 ft 241 kts 225°
2026-05-07 11:56 55.77941 -4.59794 6294 ft 243 kts 224°
2026-05-07 11:56 55.76744 -4.61929 7181 ft 245 kts 224°
2026-05-07 11:56 55.75528 -4.64085 8016 ft 249 kts 224°
2026-05-07 11:56 55.74290 -4.66273 8873 ft 253 kts 224°
2026-05-07 11:57 55.73031 -4.68484 9710 ft 257 kts 224°
2026-05-07 11:57 55.71746 -4.70681 10372 ft 266 kts 222°
2026-05-07 11:57 55.70207 -4.72692 10690 ft 285 kts 208°
2026-05-07 11:57 55.68262 -4.73823 10957 ft 306 kts 191°
2026-05-07 11:58 55.66070 -4.73885 11234 ft 326 kts 176°
2026-05-07 11:58 55.63815 -4.72847 11518 ft 346 kts 161°
2026-05-07 11:58 55.61691 -4.70621 11792 ft 366 kts 144°
2026-05-07 11:58 55.59947 -4.67221 12233 ft 381 kts 127°
2026-05-07 11:59 55.58823 -4.62918 12772 ft 393 kts 109°
2026-05-07 11:59 55.58244 -4.58155 13348 ft 400 kts 103°
2026-05-07 11:59 55.57873 -4.53254 13887 ft 405 kts 99°
2026-05-07 11:59 55.57596 -4.48260 14406 ft 409 kts 98°
2026-05-07 12:00 55.57344 -4.43242 14963 ft 412 kts 98°
2026-05-07 12:00 55.57077 -4.38176 15505 ft 415 kts 98°
2026-05-07 12:00 55.56783 -4.33074 15996 ft 419 kts 98°
2026-05-07 12:00 55.56465 -4.27940 16532 ft 422 kts 99°
2026-05-07 12:01 55.56128 -4.22776 17038 ft 425 kts 99°
2026-05-07 12:01 55.55778 -4.17556 17522 ft 429 kts 99°
2026-05-07 12:01 55.55419 -4.12291 18025 ft 432 kts 99°
2026-05-07 12:01 55.55055 -4.07006 18483 ft 435 kts 99°
2026-05-07 12:02 55.54686 -4.01682 18897 ft 438 kts 99°
2026-05-07 12:02 55.54317 -3.96399 19348 ft 440 kts 99°
2026-05-07 12:02 55.53942 -3.91030 19786 ft 442 kts 99°
2026-05-07 12:02 55.53564 -3.85638 20119 ft 445 kts 99°
2026-05-07 12:03 55.53180 -3.80200 20525 ft 446 kts 99°
2026-05-07 12:03 55.52793 -3.74758 20916 ft 448 kts 100°
2026-05-07 12:03 55.52402 -3.69286 21306 ft 450 kts 100°
2026-05-07 12:03 55.52007 -3.63788 21729 ft 451 kts 100°
2026-05-07 12:04 55.51606 -3.58264 22097 ft 454 kts 100°
2026-05-07 12:04 55.51202 -3.52735 22471 ft 456 kts 100°
2026-05-07 12:04 55.50776 -3.47184 22862 ft 456 kts 102°
2026-05-07 12:04 55.50081 -3.41720 23198 ft 456 kts 109°
2026-05-07 12:05 55.48978 -3.36492 23541 ft 454 kts 117°
2026-05-07 12:05 55.47446 -3.31648 23809 ft 452 kts 126°
2026-05-07 12:05 55.45516 -3.27281 24044 ft 452 kts 133°
2026-05-07 12:05 55.43425 -3.23234 24287 ft 453 kts 136°
2026-05-07 12:06 55.41229 -3.19251 24551 ft 454 kts 137°
2026-05-07 12:06 55.38986 -3.15296 24790 ft 456 kts 138°
2026-05-07 12:06 55.36736 -3.11355 25035 ft 458 kts 138°
2026-05-07 12:06 55.34474 -3.07387 25273 ft 459 kts 138°
2026-05-07 12:07 55.31972 -3.03960 25484 ft 456 kts 153°
2026-05-07 12:07 55.29032 -3.01976 25723 ft 452 kts 169°
2026-05-07 12:07 55.25915 -3.01559 25974 ft 448 kts 185°
2026-05-07 12:07 55.22877 -3.02716 26179 ft 448 kts 201°
2026-05-07 12:08 55.20152 -3.05352 26311 ft 450 kts 217°
2026-05-07 12:08 55.17967 -3.09272 26506 ft 453 kts 233°
2026-05-07 12:08 55.16505 -3.14153 26735 ft 456 kts 249°
2026-05-07 12:08 55.15892 -3.19601 26979 ft 460 kts 265°
2026-05-07 12:09 55.16191 -3.25174 27297 ft 463 kts 281°
2026-05-07 12:09 55.17378 -3.30423 27621 ft 468 kts 297°
2026-05-07 12:09 55.19363 -3.34939 27901 ft 473 kts 313°
2026-05-07 12:09 55.22010 -3.38375 28190 ft 478 kts 329°
2026-05-07 12:10 55.25088 -3.40433 28522 ft 483 kts 345°
2026-05-07 12:10 55.28439 -3.40990 28844 ft 486 kts
2026-05-07 12:10 55.31774 -3.39952 29158 ft 489 kts 17°
2026-05-07 12:10 55.37282 -3.33757 29757 ft 490 kts 48°
2026-05-07 12:11 55.40333 -3.23268 30329 ft 484 kts 80°
2026-05-07 12:11 55.39884 -3.11730 30856 ft 473 kts 112°
2026-05-07 12:11 55.36146 -3.02602 31423 ft 458 kts 145°
2026-05-07 12:11 55.30392 -2.98644 31982 ft 444 kts 178°
2026-05-07 12:12 55.24497 -3.00862 32546 ft 436 kts 207°
2026-05-07 12:12 55.19178 -3.05969 32980 ft 437 kts 209°
2026-05-07 12:12 55.13899 -3.11241 33502 ft 436 kts 209°
2026-05-07 12:12 55.08644 -3.16513 34058 ft 434 kts 209°
2026-05-07 12:13 55.03485 -3.21951 34460 ft 434 kts 217°
2026-05-07 12:13 54.98388 -3.27663 34847 ft 434 kts 205°
2026-05-07 12:13 54.92736 -3.30810 35000 ft 433 kts 188°